Home   Weather   Savannah   Past weeks

Flag for USA Past Weather in Savannah, Georgia, USA — Yesterday and Last 2 Weeks

Now
50 °F

Clear.


Feels Like: 48 °F
Forecast: 42 / 60 °F
Wind: 6 mph from Southwest

Location: Hunter U. S. Army Airfield

Current Time: Dec 11, 2017 at 10:03:30 pm

Latest Report: Dec 11, 2017 at 8:56 pm


Visibility: 10 mi

Pressure: 30.07 "Hg

Humidity: 64%

Dew Point: 38 °F

Location of SavannahLocation

Past Weather in Savannah — Graph

°F

Savannah Temperature Yesterday

Maximum temperature yesterday: 51 °F (at 3:56 pm)
Minimum temperature yesterday: 27 °F (at 6:56 am)
Average temperature yesterday: 38 °F

High & Low Weather Summary for the Past Weeks

 TemperatureHumidityPressure
High78 °F (Nov 29, 2:56 pm)100% (Dec 3, 2:41 am)30.30 "Hg (Dec 3, 2:41 am)
Low27 °F (Dec 10, 6:56 am)28% (Nov 27, 2:56 pm)29.79 "Hg (Dec 9, 1:56 am)
Average54 °F86%30.12 "Hg
* Reported Nov 26 7:56 pm — Dec 11 7:56 pm, Savannah. Weather by CustomWeather, © 2017

Note: Actual official high and low records may vary slightly from our data, if they occured in-between our weather recording intervals... More about our weather records

Advertising

Savannah Weather History for the Previous 24 Hours

Scroll right to see more
 ConditionsComfort  
Time TempWeatherWind HumidityBarometerVisibility
7:56 pm
Mon, Dec 11
50 °FClear.6 mph61%30.07 "Hg10 mi
6:56 pm50 °FClear.5 mph63%30.08 "Hg10 mi
5:56 pm50 °FClear.No wind61%30.08 "Hg10 mi
4:56 pm57 °FSunny.5 mph45%30.08 "Hg10 mi
3:56 pm61 °FRefreshingly cool.6 mph36%30.07 "Hg10 mi
2:56 pm62 °FSunny.8 mph34%30.08 "Hg10 mi
1:56 pm61 °FSunny.8 mph35%30.10 "Hg10 mi
12:56 pm59 °FSunny.9 mph36%30.13 "Hg10 mi
11:56 am56 °FSunny.8 mph40%30.17 "Hg10 mi
10:56 am52 °FSunny.8 mph45%30.21 "Hg10 mi
9:56 am46 °FSunny.10 mph59%N/A10 mi
8:56 am41 °FSunny.8 mph71%30.23 "Hg10 mi
7:56 am33 °FSunny.5 mph82%30.23 "Hg10 mi
6:56 am32 °FClear.3 mph81%30.23 "Hg10 mi
5:56 am31 °FClear.6 mph80%30.22 "Hg10 mi
4:56 am31 °FClear.3 mph81%30.22 "Hg10 mi
3:56 am31 °FClear.3 mph84%30.24 "Hg10 mi
2:56 am32 °FClear.6 mph83%30.26 "Hg10 mi
1:56 am33 °FClear.3 mph84%30.26 "Hg10 mi
12:56 am34 °FClear.3 mph82%30.25 "Hg10 mi
11:56 pm
Sun, Dec 10
34 °FClear.No wind81%30.27 "Hg10 mi
10:56 pm35 °FClear.5 mph82%30.26 "Hg10 mi
Weather by CustomWeather, © 2017

See weather overview